Namest Nad Oslav, Czech Republic

1:50 AM CET on December 13, 2019 (GMT +0100)
Namest

Weather History for LKNA - August, 2019

Change the Weather History Date:

Wednesday, August 28, 2019

  Actual Average Record
Temperature  
Mean Temperature 74 °F -  
Max Temperature 84 °F - - ()
Min Temperature 64 °F - - ()
Cooling Degree Days 9    
Growing Degree Days 24 (Base 50)    
Moisture  
Dew Point 63 °F    
Average Humidity 68    
Maximum Humidity 89    
Minimum Humidity 34    
Precipitation  
Precipitation 0.00 in - - ()
Sea Level Pressure  
Sea Level Pressure 30.07 in    
Wind  
Wind Speed 8 mph ()    
Max Wind Speed 13 mph    
Max Gust Speed 24 mph    
Visibility 8.3 miles    
Events      
T = Trace of Precipitation, MM = Missing Value Source: Averaged Metar Reports

Daily Weather History Graph

Daily Weather History Graph

Search for Another Location

Airport or City:

Astronomy

Aug. 28, 2019 Rise Set
Actual Time 6:05 AM CEST 7:47 PM CEST
Civil Twilight 5:31 AM CEST 8:20 PM CEST
Nautical Twilight 4:50 AM CEST 9:01 PM CEST
Astronomical Twilight 4:05 AM CEST 9:46 PM CEST
Moon 2:58 AM CEST (8/28) 7:00 PM CEST (8/28)
Length of Visible Light 14h 48m
Length of Day
13h 41m
Waning Crescent, 6% of the Moon is Illuminated
Aug 28
Waning Crescent
Aug 30
New
Sep 6
First Quarter
Sep 14
Full
Sep 22
Last Quarter

Hourly Weather History & Observations

Time (CEST) Temp. Heat Index Dew Point Humidity Pressure Visibility Wind Dir Wind Speed Gust Speed Precip Events Conditions
12:00 AM 69 °F - 64 °F 78% 30.08 in 12 mi ESE 8.9 mph - -  
12:00 AM 69.8 °F - 64.4 °F 83% 30.12 in - ESE 8.1 mph - N/A   Clear
1:00 AM 68 °F - 64 °F 81% 30.09 in 9 mi East 8.9 mph - -  
1:00 AM 68.0 °F - 64.4 °F 88% 30.12 in - East 8.1 mph - N/A   Clear
2:00 AM 67 °F - 63 °F 82% 30.08 in 9 mi East 8.9 mph - -  
2:00 AM 68.0 °F - 64.4 °F 88% 30.12 in - East 9.2 mph - N/A   Clear
3:00 AM 67 °F - 63 °F 82% 30.08 in 9 mi East 8.9 mph - -  
3:00 AM 68.0 °F - 62.6 °F 83% 30.12 in - East 9.2 mph - N/A   Clear
4:00 AM 66 °F - 63 °F 86% 30.09 in 9 mi East 8.9 mph - -  
4:00 AM 66.2 °F - 62.6 °F 88% 30.12 in - East 8.1 mph - N/A   Clear
5:00 AM 66 °F - 63 °F 85% 30.08 in 6 mi East 6.7 mph - -  
5:00 AM 66.2 °F - 62.6 °F 88% 30.09 in - East 6.9 mph - N/A   Clear
6:00 AM 66.2 °F - 62.6 °F 88% 30.09 in - East 8.1 mph - N/A   Clear
7:00 AM 65 °F - 62 °F 89% 30.08 in 6 mi East 6.7 mph - -  
7:00 AM 66.2 °F - 62.6 °F 88% 30.09 in - East 8.1 mph - N/A   Clear
8:00 AM 67 °F - 63 °F 84% 30.07 in 7 mi East 6.7 mph - -   Clear
8:00 AM 68.0 °F - 64.4 °F 88% 30.12 in - East 4.6 mph - N/A   Clear
9:00 AM 69.8 °F - 64.4 °F 83% 30.12 in - ESE 8.1 mph - N/A   Clear
10:00 AM 73 °F - 64 °F 66% 30.05 in 6 mi SE 11.2 mph - -   Clear
10:00 AM 73.4 °F - 64.4 °F 73% 30.09 in - ESE 10.4 mph - N/A   Clear
11:00 AM 76 °F - 64 °F 59% 30.04 in 6 mi SE 8.9 mph - -   Clear
11:00 AM 77.0 °F - 64.4 °F 65% 30.12 in - SE 11.5 mph - N/A   Clear
12:00 PM 78.8 °F - 64.4 °F 61% 30.09 in 6.2 mi SE 12.7 mph 24.2 mph N/A   Mostly Cloudy
1:00 PM 82 °F - 63 °F 43% 30.01 in 6 mi SE 11.2 mph - -   Scattered Clouds
1:00 PM 80.6 °F 81.8 °F 62.6 °F 54% 30.09 in 6.2 mi SSE 10.4 mph - N/A   Mostly Cloudy
2:00 PM 82 °F - 62 °F 40% 30.01 in 6 mi SE 11.2 mph - -   Scattered Clouds
2:00 PM 82.4 °F 83.4 °F 62.6 °F 51% 30.09 in 6.2 mi SSE 10.4 mph - N/A   Mostly Cloudy
3:00 PM 84.2 °F 84.4 °F 60.8 °F 45% 30.06 in - SE 12.7 mph - N/A   Clear
4:00 PM 83 °F - 59 °F 34% 29.98 in 12 mi SE 13.4 mph - -   Scattered Clouds
4:00 PM 84.2 °F 83.8 °F 59.0 °F 42% 30.06 in - SSE 12.7 mph - N/A   Clear
5:00 PM 82.4 °F 82.9 °F 60.8 °F 48% 30.06 in - SSE 9.2 mph - N/A   Clear
6:00 PM 81 °F - 63 °F 44% 29.98 in 12 mi SE 11.2 mph - -   Clear
6:00 PM 82.4 °F 83.4 °F 62.6 °F 51% 30.06 in - SE 11.5 mph - N/A   Clear
7:00 PM 79 °F - 64 °F 51% 29.99 in 12 mi SE 6.7 mph - -   Clear
7:00 PM 78.8 °F - 64.4 °F 61% 30.06 in - SSE 5.8 mph - N/A   Clear
8:00 PM 76 °F - 63 °F 55% 29.99 in 9 mi SE 8.9 mph - -   Clear
8:00 PM 77.0 °F - 62.6 °F 61% 30.06 in - SE 6.9 mph - N/A   Clear
9:00 PM 74 °F - 62 °F 57% 30.01 in 9 mi East 6.7 mph - -   Clear
9:00 PM 75.2 °F - 62.6 °F 65% 30.06 in - ESE 6.9 mph - N/A   Clear
10:00 PM 74 °F - 63 °F 60% 30.02 in 9 mi East 4.5 mph - -   Clear
10:00 PM 73.4 °F - 64.4 °F 73% 30.06 in - ESE 5.8 mph - N/A   Clear
11:00 PM 72 °F - 64 °F 68% 30.01 in 9 mi East 6.7 mph - -   Clear
11:00 PM 73.4 °F - 64.4 °F 73% 30.06 in - East 8.1 mph - N/A   Clear